When you browse on this site, cookies collect data to enhance your experience and personalize the content and advertising you see.
Visit our Privacy Policy to learn more. By continuing to use the site, you agree to this use of cookies and data.
  • En España
  • Lista de países
  • Para 7 días
  • Temperatura del agua
  • Mapa Satelital
  • El tiempo en el mapa
  • Informadores
  • user-avatar
    Iniciar sesión

    Tiempo cada hora Golden Sands

    Hoy, 20 Enero, Domingo

    Tiempo Temperatura Precipitaciones Viento Presión Humedad
    00:00 +3°C° 0.2 mm 6 mps 766 mmHg 89%
    01:00 +3°C° 0.2 mm 6 mps 765 mmHg 90%
    02:00 +3°C° 0 mm 6 mps 765 mmHg 90%
    03:00 +3°C° 0.1 mm 6 mps 765 mmHg 90%
    04:00 +3°C° 0.1 mm 6 mps 764 mmHg 91%
    05:00 +3°C° 0.1 mm 5 mps 764 mmHg 92%
    06:00 +4°C° 0.1 mm 6 mps 764 mmHg 92%
    07:00 +4°C° 0.1 mm 6 mps 764 mmHg 93%
    08:00 +5°C° 0 mm 5 mps 763 mmHg 94%
    09:00 +5°C° 0 mm 5 mps 763 mmHg 94%
    10:00 +5°C° 0 mm 5 mps 763 mmHg 95%
    11:00 +6°C° 0 mm 5 mps 763 mmHg 95%
    12:00 +6°C° 0 mm 5 mps 762 mmHg 95%
    13:00 +6°C° 0 mm 4 mps 762 mmHg 95%
    14:00 +7°C° 0 mm 4 mps 762 mmHg 94%
    15:00 +7°C° 0 mm 4 mps 761 mmHg 95%
    16:00 +8°C° 0 mm 3 mps 761 mmHg 95%
    17:00 +8°C° 0 mm 3 mps 761 mmHg 95%
    18:00 +7°C° 0 mm 4 mps 760 mmHg 95%
    19:00 +7°C° 0 mm 4 mps 760 mmHg 94%
    20:00 +7°C° 0 mm 5 mps 760 mmHg 94%
    21:00 +7°C° 0.1 mm 5 mps 760 mmHg 93%
    22:00 +7°C° 0.1 mm 5 mps 760 mmHg 93%
    23:00 +7°C° 0.1 mm 5 mps 760 mmHg 92%

    Mañana, 21 Enero, Lunes

    Tiempo Temperatura Precipitaciones Viento Presión Humedad
    00:00 +7°C° 0.1 mm 5 mps 760 mmHg 93%
    01:00 +6°C° 0.1 mm 5 mps 760 mmHg 93%
    02:00 +6°C° 0.1 mm 4 mps 760 mmHg 93%
    03:00 +5°C° 0 mm 5 mps 760 mmHg 92%
    04:00 +3°C° 0 mm 6 mps 760 mmHg 90%
    05:00 +2°C° 0 mm 7 mps 760 mmHg 89%
    06:00 +2°C° 0 mm 6 mps 761 mmHg 88%
    07:00 +2°C° 0 mm 6 mps 761 mmHg 87%
    08:00 +2°C° 0 mm 6 mps 762 mmHg 86%
    09:00 +2°C° 0 mm 6 mps 762 mmHg 83%
    10:00 +2°C° 0 mm 6 mps 763 mmHg 81%
    11:00 +3°C° 0 mm 7 mps 763 mmHg 79%
    12:00 +3°C° 0 mm 6 mps 763 mmHg 76%
    13:00 +3°C° 0 mm 6 mps 763 mmHg 74%
    14:00 +4°C° 0 mm 6 mps 763 mmHg 72%
    15:00 +3°C° 0 mm 6 mps 764 mmHg 73%
    16:00 +2°C° 0 mm 6 mps 764 mmHg 75%
    17:00 +2°C° 0 mm 6 mps 764 mmHg 76%
    18:00 +1°C° 0 mm 6 mps 765 mmHg 78%
    19:00 +1°C° 0 mm 6 mps 765 mmHg 79%
    20:00 -1°C° 0 mm 6 mps 766 mmHg 80%
    21:00 0°C° 0 mm 5 mps 766 mmHg 81%
    22:00 0°C° 0 mm 5 mps 766 mmHg 82%
    23:00 -1°C° 0 mm 4 mps 766 mmHg 83%

    Pasado mañana, 22 Enero, Martes

    Tiempo Temperatura Precipitaciones Viento Presión Humedad
    00:00 -1°C° 0 mm 4 mps 766 mmHg 84%
    01:00 -1°C° 0 mm 4 mps 766 mmHg 85%
    02:00 -1°C° 0 mm 4 mps 766 mmHg 85%
    03:00 -1°C° 0 mm 4 mps 766 mmHg 86%
    04:00 0°C° 0 mm 3 mps 766 mmHg 87%
    05:00 0°C° 0 mm 3 mps 765 mmHg 87%
    06:00 +1°C° 0 mm 3 mps 765 mmHg 86%
    07:00 +1°C° 0 mm 3 mps 765 mmHg 85%
    08:00 +1°C° 0 mm 3 mps 765 mmHg 84%
    09:00 +1°C° 0 mm 4 mps 765 mmHg 82%
    10:00 +1°C° 0 mm 4 mps 765 mmHg 81%
    11:00 +3°C° 0 mm 4 mps 765 mmHg 79%
    12:00 +3°C° 0 mm 4 mps 764 mmHg 80%
    13:00 +3°C° 0 mm 4 mps 764 mmHg 80%
    14:00 +3°C° 0 mm 4 mps 763 mmHg 80%
    15:00 +3°C° 0 mm 4 mps 763 mmHg 82%
    16:00 +2°C° 0 mm 5 mps 762 mmHg 83%
    17:00 +2°C° 0 mm 6 mps 762 mmHg 85%
    18:00 +2°C° 0.1 mm 6 mps 761 mmHg 86%
    19:00 +2°C° 0.1 mm 6 mps 761 mmHg 87%
    20:00 +3°C° 0.1 mm 6 mps 761 mmHg 88%
    21:00 +3°C° 0.1 mm 6 mps 760 mmHg 89%
    22:00 +3°C° 0.1 mm 7 mps 760 mmHg 89%
    23:00 +3°C° 0.1 mm 7 mps 759 mmHg 90%

    23 Enero, Miércoles

    Tiempo Temperatura Precipitaciones Viento Presión Humedad
    00:00 +4°C° 0 mm 7 mps 759 mmHg 90%
    01:00 +4°C° 0 mm 7 mps 758 mmHg 91%
    02:00 +4°C° 0 mm 7 mps 758 mmHg 91%
    03:00 +4°C° 0.3 mm 8 mps 757 mmHg 93%
    04:00 +4°C° 0.3 mm 8 mps 756 mmHg 94%
    05:00 +5°C° 0.3 mm 8 mps 755 mmHg 96%
    06:00 +5°C° 2.2 mm 8 mps 755 mmHg 95%
    07:00 +5°C° 2.2 mm 9 mps 754 mmHg 94%
    08:00 +6°C° 2.2 mm 9 mps 754 mmHg 93%
    09:00 +7°C° 0 mm 10 mps 754 mmHg 89%
    10:00 +7°C° 0 mm 10 mps 753 mmHg 85%
    11:00 +8°C° 0 mm 11 mps 753 mmHg 81%
    12:00 +9°C° 0 mm 10 mps 753 mmHg 79%
    13:00 +9°C° 0 mm 10 mps 753 mmHg 77%
    14:00 +11°C° 0 mm 10 mps 752 mmHg 75%
    15:00 +9°C° 0 mm 10 mps 752 mmHg 76%
    16:00 +9°C° 0 mm 10 mps 752 mmHg 77%
    17:00 +9°C° 0 mm 10 mps 752 mmHg 78%
    18:00 +9°C° 0 mm 10 mps 753 mmHg 79%
    19:00 +8°C° 0 mm 10 mps 753 mmHg 81%
    20:00 +8°C° 0 mm 10 mps 753 mmHg 82%
    21:00 +8°C° 0 mm 9 mps 754 mmHg 84%
    22:00 +8°C° 0 mm 9 mps 754 mmHg 86%
    23:00 +8°C° 0 mm 9 mps 754 mmHg 88%

    24 Enero, Jueves

    Tiempo Temperatura Precipitaciones Viento Presión Humedad
    00:00 +7°C° 0 mm 8 mps 754 mmHg 88%
    01:00 +7°C° 0 mm 8 mps 754 mmHg 89%
    02:00 +7°C° 0 mm 8 mps 754 mmHg 89%
    03:00 +8°C° 0.1 mm 7 mps 754 mmHg 92%
    04:00 +8°C° 0.1 mm 7 mps 754 mmHg 94%
    05:00 +8°C° 0.1 mm 6 mps 753 mmHg 97%
    06:00 +8°C° 0.1 mm 6 mps 754 mmHg 96%
    07:00 +8°C° 0.1 mm 6 mps 754 mmHg 96%
    08:00 +8°C° 0.1 mm 6 mps 754 mmHg 95%
    09:00 +8°C° 0 mm 6 mps 753 mmHg 92%
    10:00 +8°C° 0 mm 6 mps 753 mmHg 88%
    11:00 +9°C° 0 mm 6 mps 753 mmHg 84%
    12:00 +9°C° 0 mm 6 mps 753 mmHg 81%
    13:00 +9°C° 0 mm 6 mps 752 mmHg 78%
    14:00 +10°C° 0 mm 6 mps 751 mmHg 75%
    15:00 +9°C° 0 mm 6 mps 751 mmHg 79%
    16:00 +8°C° 0 mm 6 mps 751 mmHg 84%
    17:00 +7°C° 0 mm 6 mps 751 mmHg 88%
    18:00 +7°C° 0 mm 6 mps 751 mmHg 89%
    19:00 +7°C° 0 mm 6 mps 752 mmHg 90%
    20:00 +6°C° 0 mm 7 mps 752 mmHg 91%
    21:00 +6°C° 0 mm 7 mps 752 mmHg 90%
    22:00 +5°C° 0 mm 7 mps 752 mmHg 90%
    23:00 +5°C° 0 mm 6 mps 752 mmHg 90%

    25 Enero, Viernes

    Tiempo Temperatura Precipitaciones Viento Presión Humedad
    00:00 +5°C° 0 mm 6 mps 752 mmHg 91%
    01:00 +5°C° 0 mm 6 mps 752 mmHg 91%
    02:00 +4°C° 0 mm 6 mps 752 mmHg 92%
    03:00 +4°C° 0 mm 6 mps 752 mmHg 93%
    04:00 +4°C° 0 mm 6 mps 752 mmHg 93%
    05:00 +6°C° 0 mm 5 mps 751 mmHg 94%
    06:00 +6°C° 0 mm 5 mps 752 mmHg 93%
    07:00 +6°C° 0 mm 5 mps 752 mmHg 93%
    08:00 +6°C° 0 mm 4 mps 752 mmHg 93%
    09:00 +6°C° 0.3 mm 4 mps 752 mmHg 92%
    10:00 +8°C° 0.3 mm 3 mps 752 mmHg 90%
    11:00 +8°C° 0.3 mm 2 mps 752 mmHg 89%
    12:00 +9°C° 0.1 mm 2 mps 752 mmHg 90%
    13:00 +9°C° 0.1 mm 2 mps 752 mmHg 91%
    14:00 +9°C° 0.1 mm 2 mps 752 mmHg 92%
    15:00 +9°C° 0 mm 2 mps 751 mmHg 93%
    16:00 +9°C° 0 mm 3 mps 751 mmHg 93%
    17:00 +8°C° 0 mm 4 mps 751 mmHg 94%
    18:00 +7°C° 0 mm 4 mps 751 mmHg 93%
    19:00 +7°C° 0 mm 4 mps 751 mmHg 92%
    20:00 +7°C° 0 mm 4 mps 751 mmHg 91%
    21:00 +7°C° 1.3 mm 5 mps 751 mmHg 92%
    22:00 +7°C° 1.3 mm 5 mps 750 mmHg 94%
    23:00 +7°C° 1.3 mm 5 mps 750 mmHg 95%
    Mostrar más